Theta_e
302 302 302 302 301 300 302 303 302 301 301 301 300 301 301 300 295 299 300 300 305 308 309 310 308 309 309 311 311 310 313 314 313 313 314 314 315 315 313 311 312 313 313 313 315
300 301 300 300 300 300 302 302 302 302 301 300 300 300 300 297 299 298 299 304 306 308 303 309 309 309 309 308 310 312 311 311 311 313 313 314 314 314 313 312 311 312 313 312 315
300 300 300 300 301 301 302 301 301 301 300 296 295 294 294 293 298 301 301 307 306 306 302 301 304 307 308 309 308 310 313 309 310 309 310 312 313 313 313 313 312 313 313 312 315
301 300 299 298 298 300 300 300 300 299 295 294 294 294 293 298 298 300 306 302 301 298 299 300 300 301 306 308 308 309 309 309 310 309 310 311 311 312 311 312 312 312 313 313 315
299 300 299 298 299 299 299 299 299 295 294 294 294 293 297 298 298 298 297 295 295 296 297 298 299 299 300 304 307 309 309 307 307 307 308 309 311 310 310 310 311 311 311 312 315
300 300 298 298 298 298 298 298 298 294 293 293 293 294 297 298 297 296 296 295 297 298 298 298 299 299 299 300 302 304 306 308 308 308 307 308 309 310 310 309 310 310 311 311 311
298 298 297 298 299 299 298 298 296 292 293 293 292 295 294 295 295 294 297 298 296 298 297 298 298 297 297 299 299 299 302 305 307 309 309 308 309 310 308 309 309 310 310 310 310
298 296 297 297 298 298 298 297 292 292 292 292 292 294 294 294 294 296 295 294 294 294 295 295 295 297 298 298 298 299 300 304 304 306 308 309 310 309 308 308 308 309 311 311 310
298 297 297 297 297 297 297 293 292 293 292 292 294 294 294 292 294 294 294 295 295 294 294 295 295 295 296 297 299 299 299 299 301 304 305 309 310 308 308 308 308 309 309 310 310
297 297 297 296 296 296 295 292 293 294 293 293 293 294 293 292 294 294 294 295 294 294 295 296 296 297 296 297 299 297 299 299 299 300 302 305 306 306 307 308 309 308 309 309 310
297 297 296 296 296 294 294 294 293 294 292 293 293 293 293 293 293 293 294 294 293 294 296 296 296 297 297 296 296 297 297 297 298 300 301 302 302 305 307 308 308 308 308 309 309
296 296 295 296 295 293 295 294 294 293 294 293 293 292 293 294 293 292 293 293 294 295 295 297 297 296 297 296 295 296 295 296 297 298 299 300 302 303 303 304 307 308 308 309 308
296 296 296 295 293 296 295 293 292 293 293 293 293 292 292 293 292 293 293 293 295 296 296 296 297 296 296 296 296 296 296 295 296 296 297 298 299 300 303 304 304 305 307 308 308
294 295 295 295 296 294 294 293 293 293 294 293 292 293 292 292 293 293 293 294 295 296 296 297 297 296 297 297 296 297 296 295 295 298 299 298 300 298 300 303 305 306 306 306 307
294 293 294 294 294 294 292 292 292 293 295 292 292 291 292 292 293 294 294 294 295 296 296 297 296 298 298 298 297 297 296 295 296 297 299 299 300 298 299 301 304 306 306 306 306
293 293 293 293 293 292 292 292 292 295 293 291 292 292 292 293 293 294 294 295 295 296 297 298 297 298 297 297 298 298 297 297 298 299 299 299 299 298 299 301 303 306 306 306 306
293 293 293 292 292 291 291 294 296 293 292 291 292 292 292 293 294 294 295 296 297 298 297 297 296 297 298 299 299 299 298 297 299 300 300 298 299 299 299 300 302 306 307 306 307
293 293 293 292 292 291 293 295 292 291 291 292 292 292 292 293 293 294 295 295 296 297 297 296 296 296 296 296 297 298 299 299 299 299 299 299 299 300 300 300 305 302 305 306 306
293 293 293 292 291 291 294 293 291 291 291 292 292 291 292 292 293 294 294 295 296 297 296 295 295 295 297 298 297 300 300 300 300 300 300 299 299 300 300 300 301 302 303 306 303
292 293 294 292 291 292 294 292 291 291 292 292 292 291 291 292 293 293 293 295 295 295 296 295 295 295 296 297 299 299 299 301 302 299 298 299 300 299 297 296 296 298 299 299 299
293 294 293 292 290 293 293 292 291 291 291 292 291 291 291 292 292 293 293 294 295 294 294 295 295 295 296 297 297 299 297 297 302 301 300 300 301 295 294 293 294 295 294 293 293
292 295 293 291 294 291 293 291 291 291 291 292 292 292 292 292 292 292 293 293 293 293 294 294 294 294 296 297 298 297 297 295 299 300 301 301 299 293 292 292 292 291 291 292 292
293 293 292 291 294 293 292 291 290 291 291 291 291 291 292 291 292 292 292 293 292 293 294 294 295 295 296 298 298 295 295 293 295 297 300 302 299 293 292 290 289 290 289 289 289
292 294 293 291 291 291 292 291 291 290 291 290 291 291 291 291 291 292 292 292 292 293 294 294 296 295 295 295 295 296 294 292 297 301 301 300 296 292 291 290 289 288 288 288 288
292 294 292 294 294 292 292 290 290 291 290 290 291 291 291 292 291 292 292 293 293 293 293 293 294 294 294 294 294 295 293 292 291 293 297 294 291 290 290 289 289 287 287 287 286
293 293 290 292 291 292 292 291 290 291 291 291 291 291 292 292 292 292 293 293 292 293 294 294 294 293 293 296 297 296 293 292 290 289 292 294 292 289 290 289 287 287 286 286 285
293 292 292 293 292 292 292 291 291 290 290 290 291 292 291 292 292 292 291 292 292 293 294 294 294 295 295 295 296 298 293 292 290 288 289 290 289 288 289 289 287 286 285 285 284
Wind_Speed
21 22 22 21 21 21 22 24 24 26 27 27 28 29 31 34 39 32 28 15 12 12 11 13 15 19 17 24 30 24 17 21 35 36 32 30 29 30 25 28 29 32 31 24 5
21 20 21 23 23 22 23 24 24 25 26 28 28 28 31 35 34 36 14 8 8 9 8 8 10 13 22 21 25 22 18 34 35 32 29 29 30 30 25 26 29 32 26 25 17
23 23 24 24 24 24 25 26 28 28 29 29 30 33 33 36 30 9 4 7 15 12 15 13 15 16 23 25 33 32 25 31 33 46 41 31 30 29 26 24 29 26 32 29 21
23 24 24 29 25 26 27 28 29 30 30 30 32 33 37 22 11 3 9 19 25 24 17 17 18 24 22 25 35 28 32 36 42 44 37 28 36 28 34 35 32 32 27 20 26
28 28 28 29 29 28 29 30 31 30 30 32 32 33 25 16 24 21 24 19 22 20 21 20 23 22 26 25 33 28 31 43 45 42 37 38 31 32 36 43 34 29 15 12 19
24 25 29 29 31 30 30 31 31 32 33 32 28 21 21 23 9 12 17 23 19 18 19 19 20 20 23 26 26 34 34 34 39 39 37 30 31 37 49 37 34 32 37 27 21
25 26 26 29 30 31 32 32 34 36 34 29 22 20 25 26 21 20 13 12 11 13 15 14 15 17 18 23 33 34 30 31 29 28 30 38 36 38 44 41 42 41 38 32 30
27 28 26 28 29 32 33 35 37 30 28 14 27 20 13 13 13 13 12 25 20 16 21 25 25 26 21 22 31 27 23 19 30 30 31 28 34 33 42 44 40 41 39 37 41
27 29 28 29 31 32 34 36 31 23 18 23 13 7 10 12 13 18 17 16 17 27 24 23 20 25 25 19 18 20 23 32 30 27 32 33 33 31 39 37 36 44 45 39 36
27 30 31 29 30 32 34 36 24 15 8 11 1 14 6 23 24 22 20 13 20 26 24 18 21 18 18 17 17 23 24 28 31 29 31 31 34 32 41 39 37 39 32 42 43
27 28 29 31 30 30 31 26 28 5 30 10 26 19 27 20 24 18 22 23 26 23 16 20 13 17 23 24 27 27 27 32 29 28 28 31 29 28 25 28 28 32 39 36 36
30 29 30 29 29 23 22 13 11 14 14 24 8 10 15 13 28 35 23 18 21 22 21 19 21 26 24 23 23 21 22 26 27 31 27 28 28 25 29 29 28 33 31 35 37
32 29 27 28 25 15 18 9 17 17 9 15 10 13 17 18 40 30 30 20 17 22 20 20 28 24 25 22 24 24 25 25 27 27 28 27 31 29 28 28 37 36 35 36 33
32 28 26 30 13 19 12 16 18 12 4 7 9 2 18 35 12 33 14 15 12 14 15 15 20 17 21 25 24 25 25 25 25 22 16 19 21 27 28 28 28 26 35 35 37
33 25 29 25 17 13 18 23 22 1 6 15 8 12 33 19 28 17 15 20 19 24 12 16 20 20 21 24 22 22 21 20 22 20 20 21 13 20 23 28 24 27 36 37 38
32 24 30 18 14 18 22 25 5 4 4 13 14 25 25 25 22 12 26 19 18 13 16 22 22 16 15 18 17 17 19 17 17 15 16 19 17 18 22 25 19 26 33 36 39
28 25 27 15 15 22 23 12 4 3 14 9 26 27 24 19 15 12 20 15 9 8 18 17 11 4 7 10 11 17 11 8 8 10 14 16 15 20 14 27 28 24 26 31 32
30 26 21 11 17 21 16 3 3 4 13 17 17 24 9 18 14 18 19 15 10 11 15 13 18 14 10 20 13 21 8 7 9 12 15 16 7 17 24 28 11 9 14 17 19
29 25 9 10 17 16 8 2 3 9 10 14 19 9 11 14 11 13 19 13 6 10 10 13 15 27 14 4 5 3 6 16 12 17 13 12 20 23 16 24 18 10 9 14 10
27 19 5 9 18 9 3 4 3 9 13 9 7 5 13 15 13 16 12 8 16 10 14 8 18 9 10 15 1 11 11 5 5 4 12 12 9 8 13 11 9 10 10 10 8
19 10 6 11 10 2 3 4 8 11 13 3 7 8 10 17 13 16 8 17 6 20 18 12 6 14 17 12 17 6 9 6 6 4 7 9 4 7 9 11 9 10 11 9 8
11 5 8 9 3 1 4 9 10 10 8 10 8 11 13 15 13 11 11 16 24 23 19 6 6 11 21 18 1 6 13 12 6 3 6 2 2 5 6 8 9 7 11 12 12
8 8 8 4 3 4 8 8 12 7 6 3 6 8 7 9 10 11 14 13 29 9 8 7 4 12 11 2 4 11 18 13 12 9 11 6 4 6 8 9 12 10 13 13 13
5 4 4 4 3 4 8 7 4 8 14 9 12 15 12 11 14 14 26 12 28 26 25 10 7 8 11 16 16 11 20 22 4 4 9 3 6 13 13 14 13 16 17 16 15
4 5 5 3 6 7 9 7 13 8 7 9 6 11 14 10 21 16 18 28 17 9 5 3 8 12 15 18 17 5 16 19 15 14 7 8 7 14 11 12 13 17 19 20 21
6 5 4 9 10 10 9 5 11 12 7 11 14 18 16 19 18 29 23 24 12 7 7 4 6 7 13 6 5 4 10 12 12 12 11 8 7 14 8 10 15 19 21 22 23
17 19 12 8 7 6 8 8 8 12 13 16 15 18 20 21 24 32 36 35 21 17 14 3 4 6 4 7 9 3 9 5 3 10 7 8 7 11 7 8 15 19 20 21 22
Wind_Direction
359 357 355 351 346 344 344 341 340 339 336 333 333 332 331 328 327 323 303 267 276 301 290 282 259 251 245 237 232 234 246 241 243 244 242 244 251 246 246 247 254 244 234 237 243
353 354 349 347 344 347 341 338 336 333 330 329 330 329 328 326 324 316 265 199 284 266 331 299 266 254 237 237 230 224 228 237 241 248 255 257 255 250 251 232 251 248 241 238 240
354 354 347 349 345 341 339 337 332 331 330 330 328 327 325 325 323 326 246 242 285 266 300 292 276 270 258 243 235 231 234 247 250 255 260 264 260 258 247 244 242 236 239 235 232
352 349 345 344 342 341 336 334 332 331 331 327 325 325 318 325 300 18 255 288 291 297 303 290 281 268 259 251 244 245 242 246 253 263 269 258 258 260 249 251 247 263 259 248 219
352 348 344 349 344 337 336 334 332 333 331 325 324 319 325 304 278 293 283 289 294 301 292 287 276 272 259 260 255 249 242 248 254 261 261 264 265 247 253 249 247 247 245 243 224
344 340 337 344 341 341 337 333 330 333 328 322 321 318 312 288 304 320 306 307 308 306 291 277 270 275 289 277 269 263 269 259 254 255 259 255 254 257 246 248 252 250 248 245 245
341 336 340 342 339 337 334 329 330 330 324 323 325 316 301 276 299 310 309 299 312 304 297 291 278 271 279 287 266 266 267 264 259 265 261 246 251 242 250 249 249 248 248 247 246
342 343 338 338 335 332 331 329 332 324 321 321 318 313 273 297 315 306 316 305 297 293 288 283 274 268 273 283 281 276 268 268 252 249 253 257 248 246 248 249 250 249 244 241 247
336 341 338 336 334 336 331 331 335 326 318 324 319 333 295 321 325 308 310 299 304 299 293 277 270 258 258 258 275 250 253 252 254 246 239 234 248 252 255 258 248 238 241 237 241
342 341 341 335 334 335 333 339 342 315 349 352 284 326 293 317 318 310 316 297 307 302 297 272 254 253 248 254 253 260 260 245 250 248 258 245 243 248 247 247 248 257 245 230 232
342 337 337 338 336 340 340 348 358 339 333 312 299 281 288 311 307 314 312 299 297 289 272 274 286 257 246 245 250 250 253 269 271 273 252 253 266 263 250 246 241 247 241 245 234
338 336 337 334 338 344 349 7 9 323 312 324 318 307 306 322 314 316 324 310 304 288 292 288 267 261 264 273 275 274 281 277 273 266 265 273 272 271 255 260 249 242 246 242 242
340 336 340 335 344 344 343 335 332 338 296 310 309 319 339 330 317 308 329 318 295 286 282 272 269 283 285 267 259 256 254 262 267 269 266 266 266 258 262 265 248 256 246 247 249
343 340 338 337 352 336 347 324 330 329 284 336 334 346 330 330 305 317 318 327 287 288 294 280 277 277 265 257 261 263 262 263 263 267 265 254 261 251 253 256 242 235 241 239 245
338 339 337 345 324 343 326 333 327 320 307 346 329 325 325 327 305 319 316 324 273 285 285 265 301 289 278 272 269 267 259 262 264 264 270 259 260 265 251 252 246 236 229 233 239
339 341 337 344 343 335 334 331 350 246 299 329 321 327 330 328 327 304 327 327 286 286 273 273 269 264 265 281 273 268 260 260 262 257 257 246 235 253 235 242 245 230 227 229 233
338 339 337 339 334 335 335 335 272 351 340 306 329 332 325 327 332 335 335 331 335 303 339 331 334 264 255 288 260 239 224 238 240 222 247 242 227 238 257 227 242 254 216 229 231
335 334 335 330 334 339 339 286 329 356 309 314 323 317 315 341 330 333 330 329 351 352 315 341 327 333 319 297 289 286 248 235 270 251 271 266 226 243 227 246 211 300 314 235 231
333 336 323 327 337 346 337 340 326 330 324 320 320 319 309 328 336 321 326 297 321 359 352 322 300 312 307 358 273 346 226 251 247 255 276 273 273 247 259 222 249 316 296 248 71
334 329 281 329 340 354 287 308 272 301 306 310 298 317 308 324 323 339 310 306 323 337 359 305 300 310 313 317 159 293 317 280 202 260 259 251 270 8 7 10 3 12 20 16 26
332 321 265 322 337 315 323 277 300 294 306 271 284 293 290 312 320 315 274 299 329 332 331 295 263 291 306 316 315 303 340 326 269 238 275 279 79 4 356 359 1 27 30 22 16
327 299 281 316 280 174 276 309 295 286 292 283 281 270 271 304 301 303 280 300 319 329 312 319 291 286 294 299 269 331 320 317 291 240 243 257 74 28 12 12 1 10 23 19 20
301 273 289 303 267 302 294 264 276 279 283 269 267 257 280 300 306 279 297 308 311 311 306 313 262 308 314 167 343 336 344 321 267 256 265 310 88 40 39 22 14 11 20 21 14
299 294 259 238 258 292 314 289 263 266 281 255 268 285 281 284 271 281 290 300 310 300 300 313 263 265 277 290 311 325 354 352 220 282 267 303 61 10 13 11 7 11 17 20 17
232 242 253 265 245 252 289 268 283 294 218 272 270 251 293 300 301 272 300 310 319 329 299 274 276 293 285 282 285 11 11 4 17 358 24 56 49 6 9 6 1 5 14 17 16
242 235 226 264 258 258 261 256 265 279 247 266 279 284 287 290 283 295 308 303 304 291 317 264 281 321 299 305 268 360 15 14 15 358 12 20 59 359 359 23 16 14 14 14 12
242 247 248 259 221 238 245 242 268 291 286 265 287 302 294 287 293 293 286 278 267 278 288 278 300 309 288 318 303 171 1 22 46 18 336 20 343 335 360 35 24 12 13 11 8